This is the latest recevied weather packets stored in our database for station/object SQ6PCH-10. If no packets are shown the sender has not sent any weather packets the latest 10 day(s).
| Time | Temp. | Humidity | Pressure | Rain* | Wind** | Luminosity | Snow |
|---|---|---|---|---|---|---|---|
| 1777523214 | -0.56° C | 77% | 1016.8 hPa | - | - | - | - |
| 1777522614 | -0.56° C | 78% | 1016.8 hPa | - | - | - | - |
| 1777522014 | -1.11° C | 78% | 1016.7 hPa | - | - | - | - |
| 1777521414 | -1.11° C | 78% | 1016.8 hPa | - | - | - | - |
| 1777520814 | -1.11° C | 77% | 1016.7 hPa | - | - | - | - |
| 1777520214 | -1.67° C | 77% | 1016.6 hPa | - | - | - | - |
| 1777519613 | -1.67° C | 77% | 1016.6 hPa | - | - | - | - |
| 1777519013 | -1.67° C | 77% | 1016.5 hPa | - | - | - | - |
| 1777518413 | -1.67° C | 76% | 1016.6 hPa | - | - | - | - |
| 1777517813 | -1.67° C | 76% | 1016.6 hPa | - | - | - | - |
| 1777517213 | -1.67° C | 76% | 1016.7 hPa | - | - | - | - |
| 1777516613 | -1.67° C | 76% | 1016.5 hPa | - | - | - | - |
| 1777516012 | -1.67° C | 75% | 1016.5 hPa | - | - | - | - |
| 1777515412 | -1.11° C | 74% | 1016.5 hPa | - | - | - | - |
| 1777514812 | -1.11° C | 74% | 1016.5 hPa | - | - | - | - |
| 1777514212 | -1.11° C | 74% | 1016.3 hPa | - | - | - | - |
| 1777513626 | -1.11° C | 74% | 1016.2 hPa | - | - | - | - |
| 1777513612 | -1.11° C | 74% | 1016.2 hPa | - | - | - | - |
| 1777513012 | -1.11° C | 74% | 1016 hPa | - | - | - | - |
| 1777512412 | -1.11° C | 73% | 1016 hPa | - | - | - | - |
| 1777511811 | -1.11° C | 71% | 1015.9 hPa | - | - | - | - |
| 1777509411 | -0.56° C | 69% | 1015.8 hPa | - | - | - | - |
| 1777507010 | 0° C | 67% | 1015.9 hPa | - | - | - | - |
| 1777502209 | 1.67° C | 56% | 1015.9 hPa | - | - | - | - |
| 1777501609 | 1.67° C | 56% | 1015.9 hPa | - | - | - | - |
* Rain since midnight (hover to see other rain measurements)
** Current wind speed in m/s (hover to see current wind gust speed)